QPF
0.04 0.04 0.03 0.04 0.04 0.03 0.02 0.02 0.02 0.02 0.01 0.01 0.01 0.01 0.00 0.00 0.00 0.01 0.01 0.01 0.02 0.02 0.02 0.02 0.03 0.04 0.03 0.03 0.02 0.02 0.02 0.03 0.02 0.02 0.01 0.01 0.01 0.02 0.02 0.02 0.03 0.03 0.03
0.04 0.04 0.04 0.05 0.04 0.04 0.03 0.03 0.03 0.01 0.01 0.01 0.01 0.00 0.00 0.01 0.01 0.02 0.02 0.02 0.02 0.02 0.02 0.03 0.03 0.03 0.02 0.03 0.02 0.02 0.03 0.04 0.04 0.03 0.02 0.02 0.02 0.02 0.03 0.03 0.03 0.03 0.03
0.04 0.05 0.08 0.07 0.05 0.03 0.03 0.04 0.03 0.02 0.02 0.02 0.01 0.01 0.01 0.02 0.02 0.02 0.02 0.02 0.02 0.02 0.02 0.02 0.02 0.02 0.01 0.03 0.03 0.03 0.04 0.04 0.04 0.04 0.03 0.03 0.03 0.04 0.05 0.05 0.05 0.04 0.04
0.04 0.05 0.05 0.04 0.03 0.03 0.03 0.04 0.04 0.04 0.03 0.02 0.02 0.02 0.03 0.02 0.02 0.02 0.01 0.02 0.03 0.02 0.01 0.01 0.01 0.01 0.02 0.03 0.03 0.03 0.03 0.02 0.03 0.03 0.03 0.04 0.05 0.06 0.07 0.07 0.07 0.05 0.05
0.03 0.03 0.05 0.05 0.04 0.04 0.06 0.07 0.05 0.04 0.03 0.04 0.04 0.04 0.03 0.03 0.03 0.03 0.02 0.02 0.02 0.01 0.01 0.01 0.01 0.01 0.01 0.02 0.02 0.02 0.02 0.02 0.02 0.02 0.03 0.03 0.05 0.06 0.06 0.07 0.07 0.06 0.06
0.03 0.04 0.05 0.04 0.04 0.05 0.07 0.08 0.08 0.08 0.06 0.05 0.05 0.05 0.05 0.04 0.04 0.03 0.02 0.01 0.01 0.01 0.00 0.01 0.01 0.01 0.01 0.03 0.03 0.03 0.03 0.02 0.03 0.03 0.03 0.04 0.04 0.03 0.03 0.04 0.05 0.05 0.04
0.03 0.05 0.05 0.05 0.05 0.06 0.07 0.11 0.13 0.09 0.05 0.04 0.05 0.04 0.04 0.03 0.02 0.01 0.01 0.01 0.00 0.00 0.00 0.00 0.01 0.02 0.02 0.02 0.03 0.03 0.04 0.06 0.06 0.07 0.06 0.05 0.05 0.04 0.03 0.04 0.04 0.03 0.03
0.07 0.09 0.09 0.10 0.08 0.09 0.11 0.11 0.06 0.03 0.03 0.03 0.04 0.03 0.03 0.03 0.03 0.02 0.02 0.01 0.01 0.01 0.01 0.02 0.01 0.02 0.02 0.01 0.01 0.01 0.02 0.03 0.05 0.07 0.08 0.08 0.07 0.05 0.04 0.04 0.04 0.03 0.03
0.13 0.15 0.15 0.11 0.08 0.07 0.06 0.04 0.03 0.03 0.02 0.03 0.03 0.03 0.02 0.02 0.02 0.02 0.03 0.02 0.01 0.01 0.02 0.02 0.02 0.01 0.01 0.01 0.01 0.01 0.01 0.01 0.02 0.02 0.03 0.05 0.05 0.05 0.04 0.04 0.03 0.03 0.03
0.15 0.14 0.13 0.09 0.06 0.04 0.04 0.04 0.03 0.03 0.03 0.02 0.01 0.01 0.00 0.01 0.02 0.04 0.04 0.02 0.02 0.03 0.03 0.03 0.03 0.03 0.03 0.01 0.00 0.00 0.01 0.01 0.01 0.01 0.01 0.02 0.02 0.02 0.02 0.02 0.02 0.03 0.03
0.09 0.09 0.09 0.09 0.07 0.05 0.05 0.04 0.04 0.04 0.02 0.01 0.01 0.01 0.00 0.01 0.02 0.02 0.02 0.01 0.02 0.03 0.06 0.07 0.08 0.07 0.06 0.05 0.02 0.01 0.01 0.01 0.00 0.00 0.00 0.01 0.01 0.01 0.02 0.02 0.03 0.04 0.04
0.06 0.06 0.06 0.06 0.06 0.06 0.05 0.05 0.06 0.05 0.03 0.02 0.01 0.01 0.00 0.00 0.00 0.01 0.01 0.01 0.01 0.01 0.03 0.07 0.09 0.08 0.06 0.05 0.03 0.02 0.01 0.01 0.00 0.00 0.00 0.00 0.01 0.02 0.02 0.02 0.03 0.04 0.04
0.05 0.04 0.05 0.06 0.05 0.05 0.05 0.06 0.06 0.05 0.04 0.03 0.01 0.01 0.01 0.01 0.01 0.01 0.01 0.01 0.01 0.00 0.01 0.03 0.06 0.06 0.03 0.01 0.01 0.01 0.00 0.00 0.00 0.00 0.01 0.01 0.01 0.02 0.03 0.03 0.03 0.03 0.04
0.05 0.04 0.03 0.04 0.03 0.03 0.04 0.05 0.07 0.06 0.05 0.04 0.03 0.02 0.01 0.01 0.01 0.01 0.01 0.01 0.01 0.01 0.00 0.00 0.01 0.01 0.01 0.00 0.00 0.00 0.00 0.00 0.00 0.01 0.01 0.01 0.01 0.02 0.03 0.03 0.03 0.03 0.03
0.02 0.02 0.02 0.02 0.03 0.04 0.05 0.07 0.08 0.08 0.07 0.07 0.05 0.03 0.02 0.01 0.01 0.01 0.01 0.00 0.01 0.00 0.00 0.00 0.00 0.00 0.00 0.00 0.00 0.00 0.00 0.00 0.00 0.01 0.01 0.01 0.01 0.01 0.01 0.02 0.03 0.03 0.03
0.01 0.01 0.01 0.02 0.03 0.04 0.05 0.06 0.08 0.07 0.08 0.08 0.06 0.04 0.02 0.02 0.02 0.01 0.01 0.01 0.01 0.01 0.00 0.00 0.00 0.00 0.00 0.00 0.00 0.00 0.00 0.00 0.00 0.01 0.01 0.01 0.01 0.01 0.02 0.01 0.02 0.03 0.03
0.02 0.02 0.02 0.03 0.04 0.05 0.06 0.08 0.09 0.07 0.06 0.05 0.05 0.04 0.03 0.04 0.03 0.03 0.02 0.02 0.01 0.01 0.00 0.00 0.00 0.00 0.00 0.00 0.00 0.00 0.00 0.00 0.00 0.01 0.02 0.03 0.03 0.03 0.03 0.03 0.03 0.03 0.03
0.02 0.02 0.03 0.03 0.04 0.05 0.05 0.07 0.08 0.07 0.06 0.05 0.05 0.06 0.06 0.05 0.05 0.05 0.05 0.04 0.02 0.01 0.01 0.01 0.01 0.01 0.01 0.01 0.00 0.01 0.01 0.02 0.01 0.01 0.02 0.03 0.03 0.04 0.05 0.04 0.04 0.04 0.04
0.03 0.04 0.04 0.05 0.05 0.05 0.05 0.06 0.06 0.05 0.04 0.04 0.04 0.05 0.06 0.06 0.05 0.06 0.07 0.06 0.04 0.03 0.02 0.02 0.02 0.02 0.02 0.02 0.02 0.02 0.03 0.03 0.03 0.02 0.02 0.03 0.04 0.04 0.04 0.05 0.05 0.05 0.04
0.03 0.03 0.03 0.04 0.05 0.06 0.07 0.07 0.07 0.06 0.05 0.04 0.04 0.05 0.07 0.08 0.07 0.06 0.07 0.06 0.05 0.05 0.04 0.04 0.04 0.04 0.04 0.04 0.04 0.04 0.04 0.04 0.04 0.03 0.02 0.03 0.03 0.03 0.03 0.03 0.03 0.02 0.02
0.03 0.02 0.02 0.02 0.03 0.04 0.04 0.05 0.05 0.06 0.05 0.06 0.06 0.06 0.07 0.09 0.08 0.06 0.05 0.04 0.04 0.04 0.04 0.04 0.04 0.05 0.06 0.06 0.06 0.05 0.05 0.05 0.04 0.04 0.04 0.05 0.03 0.03 0.03 0.03 0.02 0.02 0.02
0.02 0.02 0.01 0.01 0.01 0.01 0.02 0.03 0.04 0.04 0.05 0.06 0.06 0.07 0.08 0.08 0.08 0.07 0.05 0.04 0.04 0.05 0.05 0.06 0.06 0.06 0.07 0.08 0.08 0.08 0.07 0.07 0.07 0.08 0.08 0.08 0.06 0.05 0.05 0.04 0.04 0.03 0.03
0.03 0.02 0.02 0.01 0.01 0.02 0.02 0.02 0.02 0.03 0.03 0.03 0.04 0.04 0.04 0.05 0.05 0.05 0.05 0.05 0.05 0.05 0.06 0.06 0.07 0.08 0.09 0.10 0.10 0.10 0.08 0.08 0.08 0.09 0.10 0.11 0.11 0.11 0.11 0.11 0.10 0.08 0.07
0.02 0.02 0.02 0.02 0.02 0.02 0.02 0.02 0.03 0.03 0.03 0.03 0.03 0.03 0.03 0.03 0.05 0.06 0.06 0.07 0.07 0.07 0.07 0.07 0.07 0.08 0.09 0.09 0.09 0.08 0.07 0.07 0.07 0.07 0.07 0.08 0.08 0.09 0.09 0.10 0.11 0.11 0.10
0.03 0.03 0.02 0.02 0.02 0.02 0.02 0.02 0.02 0.02 0.02 0.02 0.02 0.02 0.02 0.02 0.02 0.03 0.03 0.04 0.04 0.03 0.03 0.03 0.03 0.04 0.04 0.04 0.04 0.04 0.04 0.05 0.05 0.06 0.06 0.06 0.06 0.05 0.05 0.06 0.06 0.06 0.06
0.03 0.03 0.03 0.03 0.03 0.02 0.02 0.02 0.02 0.02 0.03 0.02 0.02 0.02 0.02 0.02 0.02 0.02 0.02 0.02 0.02 0.03 0.03 0.02 0.02 0.02 0.02 0.02 0.02 0.02 0.02 0.03 0.03 0.03 0.03 0.04 0.04 0.04 0.03 0.03 0.04 0.04 0.04
MSLP
1004.08 1005.02 1005.91 1006.72 1007.42 1008.02 1008.52 1008.95 1009.33 1009.70 1010.06 1010.43 1010.81 1011.20 1011.59 1011.97 1012.34 1012.71 1013.07 1013.44 1013.81 1014.20 1014.59 1015.00 1015.42 1015.86 1016.31 1016.78 1017.29 1017.82 1018.39 1018.98 1019.58 1020.16 1020.69 1021.15 1021.51 1021.77 1021.92 1021.97 1021.94 1021.86 1021.76
1003.78 1004.73 1005.63 1006.46 1007.19 1007.82 1008.38 1008.86 1009.29 1009.70 1010.09 1010.49 1010.87 1011.26 1011.63 1011.99 1012.34 1012.69 1013.04 1013.38 1013.73 1014.09 1014.45 1014.82 1015.19 1015.57 1015.97 1016.40 1016.87 1017.39 1017.97 1018.58 1019.22 1019.85 1020.45 1020.97 1021.39 1021.70 1021.90 1021.99 1022.00 1021.97 1021.91
1003.71 1004.64 1005.54 1006.36 1007.10 1007.75 1008.33 1008.84 1009.31 1009.76 1010.18 1010.58 1010.97 1011.35 1011.70 1012.05 1012.38 1012.70 1013.02 1013.35 1013.68 1014.02 1014.36 1014.69 1015.02 1015.36 1015.72 1016.10 1016.54 1017.03 1017.59 1018.20 1018.85 1019.51 1020.13 1020.69 1021.16 1021.51 1021.75 1021.89 1021.94 1021.95 1021.94
1003.87 1004.77 1005.63 1006.42 1007.14 1007.78 1008.36 1008.89 1009.38 1009.84 1010.28 1010.69 1011.09 1011.45 1011.79 1012.10 1012.41 1012.71 1013.01 1013.32 1013.64 1013.96 1014.28 1014.60 1014.91 1015.22 1015.54 1015.88 1016.27 1016.72 1017.24 1017.82 1018.44 1019.09 1019.72 1020.30 1020.79 1021.18 1021.46 1021.63 1021.73 1021.78 1021.81
1004.21 1005.07 1005.88 1006.62 1007.29 1007.89 1008.45 1008.96 1009.45 1009.92 1010.37 1010.79 1011.18 1011.54 1011.86 1012.15 1012.43 1012.70 1012.98 1013.27 1013.58 1013.89 1014.21 1014.52 1014.81 1015.10 1015.39 1015.69 1016.03 1016.42 1016.88 1017.41 1017.98 1018.59 1019.20 1019.77 1020.27 1020.68 1021.00 1021.22 1021.37 1021.47 1021.55
1004.67 1005.48 1006.23 1006.90 1007.50 1008.04 1008.55 1009.04 1009.52 1009.99 1010.44 1010.87 1011.26 1011.60 1011.91 1012.18 1012.43 1012.67 1012.93 1013.20 1013.49 1013.80 1014.12 1014.42 1014.71 1014.99 1015.25 1015.52 1015.81 1016.14 1016.53 1016.98 1017.49 1018.03 1018.60 1019.14 1019.64 1020.07 1020.42 1020.68 1020.88 1021.03 1021.16
1005.16 1005.93 1006.60 1007.19 1007.72 1008.19 1008.65 1009.10 1009.56 1010.02 1010.47 1010.90 1011.29 1011.63 1011.92 1012.17 1012.39 1012.61 1012.84 1013.10 1013.38 1013.68 1014.00 1014.31 1014.60 1014.87 1015.12 1015.35 1015.60 1015.87 1016.18 1016.56 1016.99 1017.46 1017.97 1018.47 1018.95 1019.39 1019.76 1020.06 1020.31 1020.51 1020.68
1005.62 1006.33 1006.94 1007.45 1007.90 1008.30 1008.70 1009.12 1009.55 1010.00 1010.45 1010.88 1011.27 1011.60 1011.88 1012.11 1012.31 1012.51 1012.72 1012.95 1013.23 1013.53 1013.85 1014.17 1014.47 1014.74 1014.98 1015.20 1015.41 1015.63 1015.88 1016.18 1016.53 1016.93 1017.37 1017.82 1018.28 1018.70 1019.08 1019.41 1019.69 1019.93 1020.14
1005.97 1006.63 1007.18 1007.62 1007.99 1008.34 1008.69 1009.07 1009.48 1009.92 1010.37 1010.79 1011.18 1011.51 1011.78 1011.99 1012.18 1012.35 1012.54 1012.76 1013.03 1013.33 1013.66 1013.99 1014.30 1014.59 1014.83 1015.04 1015.23 1015.41 1015.61 1015.85 1016.13 1016.46 1016.84 1017.24 1017.65 1018.05 1018.43 1018.77 1019.06 1019.33 1019.56
1006.19 1006.81 1007.29 1007.67 1007.98 1008.27 1008.58 1008.93 1009.32 1009.75 1010.19 1010.62 1011.00 1011.32 1011.58 1011.79 1011.96 1012.12 1012.30 1012.52 1012.78 1013.08 1013.42 1013.76 1014.09 1014.39 1014.65 1014.86 1015.04 1015.20 1015.37 1015.56 1015.79 1016.06 1016.38 1016.73 1017.10 1017.47 1017.82 1018.15 1018.44 1018.71 1018.95
1006.30 1006.85 1007.27 1007.59 1007.85 1008.10 1008.37 1008.69 1009.06 1009.48 1009.91 1010.33 1010.70 1011.02 1011.28 1011.48 1011.64 1011.80 1011.98 1012.19 1012.45 1012.76 1013.10 1013.46 1013.80 1014.12 1014.39 1014.61 1014.79 1014.95 1015.10 1015.26 1015.45 1015.69 1015.96 1016.26 1016.59 1016.92 1017.24 1017.54 1017.82 1018.08 1018.31
1006.31 1006.79 1007.14 1007.40 1007.61 1007.81 1008.05 1008.34 1008.69 1009.08 1009.50 1009.90 1010.27 1010.58 1010.83 1011.03 1011.20 1011.37 1011.55 1011.77 1012.04 1012.35 1012.70 1013.06 1013.42 1013.74 1014.02 1014.25 1014.44 1014.60 1014.74 1014.89 1015.07 1015.27 1015.52 1015.79 1016.08 1016.37 1016.66 1016.93 1017.18 1017.41 1017.63
1006.29 1006.68 1006.95 1007.14 1007.29 1007.44 1007.64 1007.89 1008.21 1008.57 1008.95 1009.34 1009.69 1009.99 1010.24 1010.45 1010.63 1010.81 1011.01 1011.24 1011.52 1011.84 1012.19 1012.56 1012.91 1013.23 1013.50 1013.74 1013.92 1014.09 1014.23 1014.39 1014.56 1014.76 1014.99 1015.24 1015.51 1015.78 1016.04 1016.28 1016.50 1016.70 1016.90
1006.29 1006.57 1006.74 1006.85 1006.94 1007.03 1007.18 1007.38 1007.65 1007.97 1008.31 1008.66 1008.98 1009.28 1009.53 1009.75 1009.95 1010.15 1010.37 1010.62 1010.91 1011.23 1011.58 1011.92 1012.26 1012.56 1012.82 1013.04 1013.22 1013.38 1013.54 1013.70 1013.88 1014.09 1014.33 1014.58 1014.84 1015.10 1015.35 1015.57 1015.77 1015.95 1016.12
1006.35 1006.51 1006.58 1006.60 1006.61 1006.64 1006.73 1006.87 1007.07 1007.33 1007.62 1007.92 1008.21 1008.48 1008.73 1008.96 1009.18 1009.41 1009.65 1009.92 1010.21 1010.53 1010.85 1011.17 1011.47 1011.74 1011.96 1012.16 1012.33 1012.48 1012.64 1012.82 1013.02 1013.26 1013.51 1013.79 1014.06 1014.33 1014.57 1014.79 1014.98 1015.15 1015.30
1006.51 1006.54 1006.51 1006.44 1006.37 1006.34 1006.35 1006.42 1006.55 1006.73 1006.95 1007.19 1007.43 1007.68 1007.91 1008.14 1008.38 1008.62 1008.88 1009.16 1009.45 1009.75 1010.04 1010.32 1010.57 1010.78 1010.96 1011.12 1011.26 1011.41 1011.57 1011.77 1012.00 1012.26 1012.56 1012.87 1013.17 1013.46 1013.72 1013.94 1014.14 1014.31 1014.46
1006.77 1006.68 1006.56 1006.41 1006.27 1006.16 1006.10 1006.10 1006.15 1006.25 1006.39 1006.56 1006.74 1006.94 1007.14 1007.36 1007.59 1007.83 1008.10 1008.37 1008.64 1008.91 1009.16 1009.38 1009.57 1009.72 1009.85 1009.96 1010.08 1010.21 1010.38 1010.60 1010.86 1011.17 1011.50 1011.85 1012.20 1012.52 1012.80 1013.04 1013.25 1013.42 1013.58
1007.10 1006.93 1006.73 1006.52 1006.33 1006.16 1006.04 1005.96 1005.93 1005.95 1006.00 1006.08 1006.19 1006.33 1006.48 1006.66 1006.87 1007.09 1007.33 1007.57 1007.81 1008.03 1008.22 1008.38 1008.50 1008.59 1008.66 1008.73 1008.82 1008.95 1009.13 1009.37 1009.66 1010.01 1010.38 1010.77 1011.15 1011.50 1011.82 1012.08 1012.29 1012.47 1012.63
1007.47 1007.25 1007.01 1006.77 1006.54 1006.34 1006.17 1006.03 1005.92 1005.85 1005.81 1005.80 1005.83 1005.88 1005.97 1006.09 1006.23 1006.41 1006.59 1006.78 1006.96 1007.11 1007.23 1007.32 1007.37 1007.40 1007.42 1007.46 1007.53 1007.65 1007.84 1008.10 1008.43 1008.81 1009.22 1009.64 1010.05 1010.42 1010.75 1011.02 1011.24 1011.42 1011.58
1007.86 1007.61 1007.36 1007.12 1006.88 1006.66 1006.46 1006.27 1006.10 1005.95 1005.83 1005.72 1005.65 1005.61 1005.60 1005.63 1005.70 1005.78 1005.89 1006.00 1006.09 1006.16 1006.20 1006.21 1006.20 1006.17 1006.15 1006.16 1006.22 1006.34 1006.54 1006.82 1007.17 1007.58 1008.01 1008.45 1008.87 1009.25 1009.57 1009.84 1010.05 1010.23 1010.38
1008.22 1007.98 1007.75 1007.53 1007.31 1007.09 1006.87 1006.65 1006.43 1006.22 1006.00 1005.81 1005.63 1005.48 1005.37 1005.29 1005.25 1005.23 1005.22 1005.22 1005.22 1005.19 1005.14 1005.07 1004.99 1004.92 1004.86 1004.85 1004.90 1005.03 1005.24 1005.54 1005.90 1006.31 1006.75 1007.19 1007.60 1007.96 1008.27 1008.51 1008.71 1008.86 1009.00
1008.55 1008.34 1008.14 1007.95 1007.75 1007.55 1007.33 1007.09 1006.84 1006.56 1006.28 1006.00 1005.72 1005.47 1005.24 1005.04 1004.88 1004.73 1004.61 1004.49 1004.36 1004.23 1004.09 1003.94 1003.80 1003.68 1003.59 1003.56 1003.61 1003.74 1003.96 1004.25 1004.62 1005.02 1005.44 1005.86 1006.24 1006.57 1006.83 1007.04 1007.20 1007.33 1007.45
1008.85 1008.66 1008.50 1008.34 1008.17 1007.98 1007.77 1007.52 1007.24 1006.92 1006.58 1006.23 1005.87 1005.52 1005.19 1004.87 1004.58 1004.31 1004.06 1003.82 1003.58 1003.34 1003.11 1002.89 1002.68 1002.52 1002.40 1002.35 1002.39 1002.51 1002.71 1003.00 1003.34 1003.71 1004.10 1004.47 1004.80 1005.08 1005.30 1005.47 1005.59 1005.69 1005.78
1009.11 1008.95 1008.80 1008.66 1008.51 1008.34 1008.13 1007.87 1007.58 1007.23 1006.86 1006.45 1006.03 1005.60 1005.18 1004.77 1004.38 1004.00 1003.63 1003.28 1002.94 1002.61 1002.29 1001.99 1001.73 1001.52 1001.37 1001.30 1001.30 1001.40 1001.58 1001.82 1002.12 1002.45 1002.78 1003.09 1003.36 1003.58 1003.76 1003.88 1003.97 1004.05 1004.13
1009.34 1009.18 1009.04 1008.91 1008.76 1008.58 1008.37 1008.11 1007.81 1007.46 1007.06 1006.63 1006.17 1005.70 1005.22 1004.75 1004.28 1003.82 1003.37 1002.93 1002.51 1002.10 1001.71 1001.35 1001.04 1000.78 1000.59 1000.47 1000.44 1000.49 1000.62 1000.81 1001.04 1001.29 1001.55 1001.79 1002.00 1002.17 1002.29 1002.39 1002.46 1002.52 1002.60
1009.57 1009.39 1009.22 1009.07 1008.90 1008.72 1008.50 1008.23 1007.93 1007.57 1007.18 1006.75 1006.29 1005.81 1005.31 1004.81 1004.31 1003.81 1003.31 1002.82 1002.34 1001.88 1001.44 1001.03 1000.67 1000.36 1000.12 999.96 999.87 999.86 999.91 1000.02 1000.16 1000.33 1000.50 1000.66 1000.80 1000.92 1001.01 1001.08 1001.14 1001.21 1001.30
Thickness
5778 5774 5771 5768 5765 5762 5759 5758 5755 5753 5750 5748 5745 5743 5741 5739 5737 5734 5732 5730 5728 5725 5723 5721 5718 5717 5714 5712 5710 5707 5705 5702 5698 5697 5696 5694 5692 5690 5689 5687 5685 5684 5681
5778 5774 5770 5767 5763 5760 5758 5756 5754 5751 5749 5746 5744 5741 5739 5736 5734 5732 5729 5727 5725 5722 5720 5717 5715 5714 5711 5709 5706 5704 5701 5699 5696 5693 5692 5690 5688 5686 5684 5682 5681 5679 5677
5777 5772 5768 5765 5762 5759 5757 5754 5752 5749 5746 5744 5742 5738 5736 5733 5731 5729 5726 5724 5721 5719 5717 5715 5712 5710 5707 5705 5702 5700 5698 5696 5694 5690 5688 5686 5684 5681 5679 5677 5676 5674 5673
5775 5771 5766 5763 5760 5757 5754 5752 5749 5747 5744 5741 5738 5735 5732 5730 5728 5725 5722 5719 5717 5715 5713 5712 5709 5707 5704 5701 5699 5696 5694 5691 5688 5686 5684 5681 5679 5676 5674 5672 5670 5668 5667
5772 5768 5764 5760 5757 5754 5750 5747 5745 5742 5741 5738 5735 5731 5729 5726 5724 5721 5718 5715 5713 5710 5709 5707 5705 5703 5701 5698 5696 5693 5690 5687 5684 5681 5679 5676 5673 5670 5669 5667 5665 5663 5662
5769 5765 5761 5757 5753 5749 5746 5743 5740 5737 5735 5733 5730 5727 5724 5722 5719 5716 5714 5710 5708 5705 5703 5702 5700 5698 5696 5694 5691 5689 5686 5683 5680 5677 5674 5672 5670 5667 5664 5662 5659 5657 5656
5765 5761 5758 5753 5749 5745 5743 5739 5736 5733 5731 5729 5726 5723 5720 5718 5715 5712 5709 5706 5703 5701 5698 5697 5696 5694 5691 5688 5685 5683 5681 5679 5676 5674 5671 5668 5666 5664 5660 5657 5654 5652 5651
5761 5757 5754 5751 5746 5741 5738 5736 5733 5730 5728 5725 5722 5719 5716 5714 5711 5708 5705 5702 5699 5696 5694 5692 5690 5688 5686 5683 5680 5677 5675 5673 5671 5668 5666 5664 5662 5660 5656 5654 5651 5647 5645
5757 5753 5750 5747 5743 5738 5735 5733 5730 5727 5724 5721 5718 5715 5711 5709 5706 5703 5700 5696 5693 5691 5689 5687 5685 5683 5681 5678 5675 5671 5669 5667 5665 5663 5661 5658 5656 5654 5651 5647 5644 5642 5640
5754 5751 5748 5744 5740 5737 5734 5730 5727 5723 5720 5717 5713 5710 5707 5704 5701 5698 5695 5691 5688 5686 5684 5682 5680 5677 5674 5671 5668 5665 5663 5661 5658 5657 5654 5652 5650 5648 5646 5643 5640 5637 5635
5751 5747 5744 5740 5737 5734 5729 5725 5722 5718 5714 5711 5707 5704 5702 5699 5696 5693 5690 5687 5684 5681 5679 5677 5674 5671 5668 5665 5662 5660 5657 5655 5652 5649 5647 5646 5644 5642 5640 5638 5635 5633 5630
5746 5742 5738 5736 5733 5729 5724 5719 5715 5711 5707 5704 5701 5699 5697 5694 5691 5688 5685 5682 5680 5677 5674 5672 5669 5665 5662 5659 5656 5654 5651 5648 5645 5642 5640 5639 5638 5636 5634 5632 5629 5627 5626
5738 5735 5732 5730 5726 5723 5718 5713 5708 5705 5703 5699 5696 5694 5691 5689 5686 5683 5680 5677 5675 5672 5669 5666 5663 5659 5656 5653 5651 5648 5645 5642 5639 5636 5634 5633 5632 5630 5627 5625 5623 5621 5619
5729 5726 5724 5721 5717 5714 5711 5707 5703 5700 5697 5693 5691 5688 5686 5683 5680 5677 5674 5671 5668 5665 5662 5659 5656 5652 5649 5646 5643 5641 5638 5636 5633 5631 5629 5627 5625 5623 5621 5618 5616 5614 5612
5720 5718 5716 5713 5709 5705 5703 5700 5698 5696 5694 5691 5688 5684 5680 5677 5676 5672 5669 5666 5663 5659 5654 5651 5648 5645 5642 5639 5637 5634 5631 5629 5626 5624 5622 5620 5618 5616 5614 5612 5609 5607 5605
5712 5710 5708 5705 5702 5698 5695 5691 5690 5689 5686 5684 5683 5679 5677 5674 5670 5666 5663 5659 5655 5651 5647 5644 5642 5639 5636 5633 5630 5627 5625 5622 5620 5618 5616 5614 5612 5610 5608 5606 5603 5601 5599
5703 5702 5700 5697 5694 5691 5688 5685 5682 5680 5678 5676 5674 5671 5669 5666 5662 5658 5655 5651 5647 5643 5640 5639 5636 5633 5630 5627 5624 5622 5619 5617 5614 5612 5610 5608 5606 5604 5602 5599 5597 5594 5592
5694 5693 5691 5688 5686 5683 5680 5677 5675 5672 5670 5668 5666 5663 5660 5657 5653 5650 5646 5642 5638 5634 5633 5631 5629 5626 5623 5621 5618 5615 5612 5610 5607 5605 5603 5601 5599 5597 5595 5593 5591 5588 5585
5683 5682 5680 5678 5676 5674 5671 5669 5666 5664 5662 5660 5657 5654 5651 5647 5644 5640 5637 5635 5632 5629 5626 5624 5621 5619 5616 5613 5611 5607 5604 5602 5601 5599 5597 5594 5592 5590 5588 5587 5585 5580 5578
5672 5671 5670 5667 5665 5664 5662 5659 5657 5656 5653 5651 5649 5646 5642 5639 5636 5633 5629 5628 5625 5622 5620 5617 5614 5611 5608 5605 5602 5600 5597 5594 5593 5591 5590 5588 5586 5584 5582 5580 5578 5576 5573
5661 5660 5658 5656 5655 5654 5652 5650 5649 5647 5644 5642 5641 5638 5634 5632 5630 5626 5623 5620 5618 5615 5612 5610 5607 5604 5601 5597 5595 5592 5590 5587 5585 5584 5582 5580 5579 5577 5575 5574 5572 5570 5567
5650 5648 5647 5646 5645 5644 5642 5641 5639 5638 5636 5634 5631 5629 5624 5623 5621 5618 5615 5613 5610 5607 5605 5602 5599 5596 5593 5591 5588 5586 5583 5580 5578 5576 5575 5573 5572 5570 5568 5567 5566 5564 5562
5641 5640 5639 5638 5636 5634 5633 5632 5630 5629 5626 5624 5622 5619 5616 5614 5613 5611 5608 5605 5603 5600 5597 5594 5591 5589 5586 5583 5582 5579 5576 5573 5571 5570 5568 5566 5564 5562 5561 5560 5559 5558 5556
5633 5631 5630 5628 5626 5625 5624 5623 5621 5620 5618 5615 5613 5611 5609 5606 5605 5603 5601 5598 5596 5593 5590 5587 5585 5582 5580 5577 5575 5572 5570 5568 5565 5563 5561 5559 5557 5555 5554 5553 5552 5551 5550
5624 5623 5621 5620 5618 5617 5616 5614 5613 5611 5609 5607 5604 5602 5600 5599 5597 5595 5593 5591 5589 5586 5583 5581 5579 5576 5574 5572 5570 5567 5565 5562 5559 5556 5554 5552 5551 5549 5548 5546 5545 5544 5542
5616 5615 5613 5612 5610 5609 5608 5606 5604 5602 5600 5597 5595 5593 5592 5590 5588 5587 5585 5584 5582 5579 5577 5575 5573 5570 5568 5566 5564 5561 5559 5556 5554 5550 5548 5546 5544 5543 5541 5540 5539 5537 5535